logo tempoitalia

Diretta Meteo Solenzara, Francialunedì 31 agosto ore 07:00

Mappa
Sereno 23 °C Sereno 24 Ore: T.min 23 T.max 31
Ponente Ovest Km/h 9.3 Punto di rugiada: 19 °C Umidità: 78% Visibilità: 10 Km
Il sole sorge alle: 06:47 Il sole tramonta alle: 19:58
31 Agosto 2026 07:00 tempo osservato: Sereno Sereno 23 78 1015 vento: Nord O 9.3
31 Agosto 2026 06:30 tempo osservato: Sereno Sereno 23 83 1015 vento: Nord O 11.1
31 Agosto 2026 06:00 tempo osservato: Sereno Sereno 23 83 1015 vento: Nord O 9.3
31 Agosto 2026 05:30 tempo osservato: Sereno Sereno 23 83 1015 vento: Nord O 9.3
31 Agosto 2026 05:00 tempo osservato: Sereno Sereno 24 73 1015 vento: Nord O 11.1
31 Agosto 2026 04:30 tempo osservato: Poco Nuvoloso Poco Nuvoloso 24 73 1015 vento: Nord O 9.3
31 Agosto 2026 04:00 tempo osservato: Molto Nuvoloso Molto Nuvoloso 24 73 1015 vento: Nord O 9.3
31 Agosto 2026 03:30 tempo osservato: Molto Nuvoloso Molto Nuvoloso 24 73 1015 vento: Nord O 9.3
31 Agosto 2026 03:00 tempo osservato: Sereno Sereno 24 73 1015 vento: Nord O 9.3
31 Agosto 2026 02:30 tempo osservato: Sereno Sereno 24 78 1015 vento: Nord O 7.4
31 Agosto 2026 02:00 tempo osservato: Sereno Sereno 24 78 1015 vento: Nord O 9.3
31 Agosto 2026 01:30 tempo osservato: Sereno Sereno 24 78 1015 vento: Nord O 9.3
31 Agosto 2026 01:00 tempo osservato: Sereno Sereno 24 78 1015 vento: Nord O 9.3
31 Agosto 2026 00:30 tempo osservato: Sereno Sereno 25 78 1015 vento: Nord O 9.3
31 Agosto 2026 00:00 tempo osservato: Sereno Sereno 25 78 1015 vento: Nord O 7.4
30 Agosto 2026 23:30 tempo osservato: Sereno Sereno 25 78 1015 vento: Nord O 9.3
30 Agosto 2026 23:00 tempo osservato: Sereno Sereno 25 78 1015 vento: Nord O 7.4
30 Agosto 2026 22:30 tempo osservato: Sereno Sereno 25 78 1015 vento: Nord O 7.4
30 Agosto 2026 22:00 tempo osservato: Sereno Sereno 26 73 1015 vento: Nord O 7.4
30 Agosto 2026 21:30 tempo osservato: Sereno Sereno 26 73 1015 vento: Nord O 7.4
30 Agosto 2026 21:00 tempo osservato: Sereno Sereno 26 73 1015 vento: Nord N 5.5
30 Agosto 2026 20:30 tempo osservato: Sereno Sereno 27 74 1014 vento: Nord N 3.7
30 Agosto 2026 20:00 tempo osservato: Sereno Sereno 27 74 1014 vento: Nord N 3.7
30 Agosto 2026 19:30 tempo osservato: Sereno Sereno 28 65 1014 vento: Nord N 5.5
30 Agosto 2026 19:00 tempo osservato: Sereno Sereno 29 62 1014 vento: Nord E/NE 7.4
30 Agosto 2026 18:30 tempo osservato: Sereno Sereno 29 66 1014 vento: Nord E 9.3
30 Agosto 2026 18:00 tempo osservato: Sereno Sereno 29 66 1014 vento: Nord E/NE 11.1
30 Agosto 2026 17:30 tempo osservato: Sereno Sereno 30 62 1014 vento: Nord E 11.1
30 Agosto 2026 17:00 tempo osservato: Sereno Sereno 30 62 1014 vento: Nord E/SE 9.3
30 Agosto 2026 16:30 tempo osservato: Sereno Sereno 30 62 1014 vento: Nord E/SE 11.1
30 Agosto 2026 16:00 tempo osservato: Sereno Sereno 30 62 1014 vento: Nord S/SE 13
30 Agosto 2026 15:30 tempo osservato: Sereno Sereno 30 62 1014 vento: Nord SE 14.8
30 Agosto 2026 15:00 tempo osservato: Sereno Sereno 30 62 1014 vento: Nord SE 16.7
30 Agosto 2026 14:30 tempo osservato: Poco Nuvoloso Poco Nuvoloso 30 62 1015 vento: Nord SE 16.7
30 Agosto 2026 14:00 tempo osservato: Nuvoloso Nuvoloso 30 62 1015 vento: Nord SE 14.8
30 Agosto 2026 13:30 tempo osservato: Poco Nuvoloso Poco Nuvoloso 31 62 1015 vento: Nord SE 16.7
30 Agosto 2026 13:00 tempo osservato: Poco Nuvoloso Poco Nuvoloso 31 55 1015 vento: Nord E/SE 16.7
30 Agosto 2026 12:30 tempo osservato: Sereno Sereno 30 58 1015 vento: Nord E/SE 14.8
30 Agosto 2026 12:00 tempo osservato: Poco Nuvoloso Poco Nuvoloso 30 62 1015 vento: Nord E 14.8
30 Agosto 2026 11:30 tempo osservato: Sereno Sereno 30 62 1015 vento: Nord E 14.8
30 Agosto 2026 11:00 tempo osservato: Sereno Sereno 30 62 1015 vento: Nord E/NE 13
30 Agosto 2026 10:30 tempo osservato: Sereno Sereno 29 66 1015 vento: Nord E 11.1
30 Agosto 2026 10:00 tempo osservato: Poco Nuvoloso Poco Nuvoloso 29 62 1015 vento: Nord E/NE 9.3
30 Agosto 2026 09:30 tempo osservato: Molto Nuvoloso Molto Nuvoloso 28 69 1015 vento: Nord E/NE 9.3
30 Agosto 2026 09:00 tempo osservato: Poco Nuvoloso Poco Nuvoloso 28 69 1014 vento: Nord N 5.5
30 Agosto 2026 08:30 tempo osservato: Molto Nuvoloso Molto Nuvoloso 27 69 1014 vento: Nord N 5.5
30 Agosto 2026 08:00 tempo osservato: Molto Nuvoloso Molto Nuvoloso 26 69 1014 vento: Nord O 7.4